Location: Kalberh�ni
(46.4610°N, 7.2453°E)
Time: 02:06:26
(UTC+00:00)

SL-16 R/B - Pass Details

Date: 20 June 2021
Orbit: 842 x 847 km, 71.0° (Epoch: 25 July)

Event Time Altitude Azimuth Distance (km) Brightness Sun altitude
Exits shadow 22:23:46 28° 135° (SE) 1,532 3.1 -18.4°
Maximum altitude 22:25:20 33° 105° (ESE) 1,394 3.1 -18.5°
Drops below altitude 10° 22:30:19 10° 43° (NE) 2,472 5.0 -18.7°
Sets 22:32:58 0° 34° (NE) 3,411 6.0 -18.8°
